Regional Weather Roundup
Issued by NWS Sioux Falls, SD

Current Version | Previous Version | Text Only | Print | Product List | Glossary On
Versions: 1 2 3 4 5 6 7 8 9 10 11 12 13 14 15 16 17 18 19 20 21 22 23 24 25 26 27 28 29 30 31 32 33 34 35 36 37 38 39 40 41 42 43 44 45 46 47 48 49 50
000 ASUS43 KFSD 191910 RWRFSD WEATHER ROUNDUP FOR SE SOUTH DAKOTA/SW MINNESOTA/NW IOWA NATIONAL WEATHER SERVICE SIOUX FALLS SD 200 PM CDT MON APR 19 2021 NOTE: "FAIR" INDICATES FEW OR NO CLOUDS BELOW 12,000 FEET WITH NO SIGNIFICANT WEATHER AND OR OBSTRUCTIONS TO VISIBILITY. SDZ038>040-050-052>070-192000- SOUTHEAST SOUTH DAKOTA CITY SKY/WX TMP DP RH WIND PRES REMARKS BROOKINGS PTSUNNY 35 14 42 N15G25 30.10S WCI 25 CHAMBERLAIN CLOUDY 37 14 39 N20G30 30.17F HURON PTSUNNY 38 14 37 N20G29 30.16F MITCHELL MOSUNNY 40 14 34 N21G28 30.17F SIOUX FALLS PTSUNNY 40 18 41 N15G32 30.11F WINNER CLOUDY 37 13 37 NW24G32 30.18F YANKTON MOSUNNY 39 13 34 NW18G30 30.14F $$ MNZ071-072-080-081-089-090-097-098-192000- SOUTHWEST MINNESOTA CITY SKY/WX TMP DP RH WIND PRES REMARKS FAIRMONT PTSUNNY 38 17 42 NW18G31 30.04F JACKSON PTSUNNY 36 18 48 NW25 30.04F LUVERNE MOSUNNY 36 12 38 N16G22 30.10S MARSHALL CLOUDY 36 15 42 N17G29 30.09F MONTEVIDEO PTSUNNY 37 10 32 N21G28 30.09S PIPESTONE N/A 36 16 44 N12G25 30.07F REDWOOD FALLS CLOUDY 37 12 35 NW18G29 30.07F TRACY CLOUDY 37 14 39 N20G29 30.08F WINDOM PTSUNNY 36 16 44 NW22G32 30.05S WORTHINGTON PTSUNNY 34 16 47 N20G30 30.07F WCI 23 $$ IAZ001>003-012>014-020>022-031-032-NEZ013-014-SDZ071-192000- NORTHWEST IOWA CITY SKY/WX TMP DP RH WIND PRES REMARKS CHEROKEE PTSUNNY 38 20 48 N17G24 30.09F DENISON PTSUNNY 37 23 56 N17 30.10S ESTHERVILLE PTSUNNY 36 17 46 N23G35 30.05F LE MARS PTSUNNY 39 16 38 NW15 30.10S MAURICE FAIR 39 14 35 NW22G31 30.08F SHELDON PTSUNNY 37 16 41 N17G30 30.07S SIOUX CITY PTSUNNY 39 20 46 N20G25 30.12F SPENCER PTSUNNY 40 17 39 NW22G30 30.07F STORM LAKE N/A 37 16 41 N16G25 30.07S $$ ABBREVIATIONS USED IN REMARKS TC - TEMPERATURE IN CELSIUS WCI - WIND CHILL INDEX HX - HEAT INDEX VSB - VISIBILITY

USA.gov is the U.S. government's official web portal to all federal, state and local government web resources and services.